When you browse on this site, cookies collect data to enhance your experience and personalize the content and advertising you see.
Visit our Privacy Policy to learn more. By continuing to use the site, you agree to this use of cookies and data.
  • In Latvia
  • List of Countries
  • For 7 days
  • Water Temperature
  • Weather Map
  • Weather Widgets
  • user-avatar
    Login

    Hourly Weather Kurzeszyn

    Today, 21 February, Friday

    Time Temperature Precipitation Wind Pressure Humidity
    00:00 +1°C° 0 mm 6 mps 751 mmHg 76%
    01:00 -1°C° 0 mm 6 mps 751 mmHg 75%
    02:00 +1°C° 0 mm 6 mps 750 mmHg 77%
    03:00 0°C° 0 mm 7 mps 749 mmHg 78%
    04:00 0°C° 0 mm 7 mps 748 mmHg 80%
    05:00 0°C° 0 mm 7 mps 747 mmHg 77%
    06:00 0°C° 0 mm 7 mps 747 mmHg 75%
    07:00 0°C° 0 mm 7 mps 746 mmHg 73%
    14:00 +3°C° 0 mm 9 mps 751 mmHg 61%
    15:00 +4°C° 0 mm 8 mps 752 mmHg 60%
    16:00 +4°C° 0 mm 7 mps 752 mmHg 60%
    17:00 +3°C° 0 mm 7 mps 753 mmHg 64%
    18:00 +2°C° 0 mm 6 mps 754 mmHg 69%
    19:00 +2°C° 0 mm 5 mps 755 mmHg 74%
    20:00 +1°C° 0 mm 5 mps 755 mmHg 76%
    21:00 +1°C° 0 mm 4 mps 755 mmHg 79%
    22:00 0°C° 0 mm 4 mps 756 mmHg 81%
    23:00 0°C° 0 mm 4 mps 756 mmHg 83%

    Tomorrow, 22 February, Saturday

    Time Temperature Precipitation Wind Pressure Humidity
    00:00 0°C° 0 mm 4 mps 756 mmHg 84%
    01:00 0°C° 0 mm 4 mps 757 mmHg 85%
    02:00 -1°C° 0 mm 4 mps 756 mmHg 86%
    03:00 -1°C° 0 mm 4 mps 756 mmHg 86%
    04:00 -1°C° 0 mm 4 mps 756 mmHg 87%
    05:00 -1°C° 0 mm 5 mps 756 mmHg 85%
    06:00 -1°C° 0 mm 5 mps 755 mmHg 83%
    07:00 -1°C° 0 mm 5 mps 755 mmHg 81%
    08:00 -1°C° 0 mm 6 mps 755 mmHg 75%
    09:00 +2°C° 0 mm 7 mps 754 mmHg 69%
    10:00 +2°C° 0 mm 8 mps 754 mmHg 62%
    11:00 +3°C° 0 mm 9 mps 753 mmHg 62%
    12:00 +3°C° 0 mm 9 mps 752 mmHg 61%
    13:00 +5°C° 0 mm 9 mps 751 mmHg 60%
    14:00 +5°C° 0 mm 9 mps 750 mmHg 58%
    15:00 +6°C° 0 mm 9 mps 749 mmHg 56%
    16:00 +6°C° 0 mm 9 mps 748 mmHg 53%
    17:00 +6°C° 0 mm 9 mps 748 mmHg 53%
    18:00 +7°C° 0 mm 9 mps 747 mmHg 52%
    19:00 +7°C° 0 mm 9 mps 747 mmHg 52%
    20:00 +7°C° 0 mm 9 mps 747 mmHg 53%
    21:00 +7°C° 0 mm 10 mps 746 mmHg 54%
    22:00 +7°C° 0 mm 10 mps 746 mmHg 55%
    23:00 +6°C° 0.4 mm 9 mps 746 mmHg 61%

    Day after tomorrow, 23 February, Sunday

    Time Temperature Precipitation Wind Pressure Humidity
    00:00 +5°C° 0.4 mm 9 mps 746 mmHg 67%
    01:00 +3°C° 0.4 mm 9 mps 747 mmHg 73%
    02:00 +3°C° 0.1 mm 9 mps 747 mmHg 72%
    03:00 +2°C° 0.1 mm 9 mps 747 mmHg 71%
    04:00 +2°C° 0.1 mm 8 mps 747 mmHg 70%
    05:00 +1°C° 0 mm 8 mps 748 mmHg 71%
    06:00 +1°C° 0 mm 8 mps 748 mmHg 72%
    07:00 0°C° 0 mm 7 mps 749 mmHg 73%
    08:00 +1°C° 0 mm 8 mps 749 mmHg 71%
    09:00 +1°C° 0 mm 8 mps 749 mmHg 68%
    10:00 +2°C° 0 mm 8 mps 749 mmHg 66%
    11:00 +2°C° 0 mm 8 mps 748 mmHg 64%
    12:00 +2°C° 0 mm 9 mps 748 mmHg 62%
    13:00 +3°C° 0 mm 9 mps 748 mmHg 61%
    14:00 +2°C° 0.2 mm 8 mps 747 mmHg 66%
    15:00 +3°C° 0.2 mm 7 mps 746 mmHg 72%
    16:00 +2°C° 0.2 mm 6 mps 745 mmHg 77%
    17:00 +2°C° 0.3 mm 6 mps 744 mmHg 82%
    18:00 +2°C° 0.3 mm 6 mps 743 mmHg 87%
    19:00 +1°C° 0.3 mm 6 mps 742 mmHg 92%
    20:00 +1°C° 1.2 mm 4 mps 741 mmHg 93%
    21:00 +2°C° 1.2 mm 3 mps 740 mmHg 94%
    22:00 +3°C° 1.2 mm 1 mps 739 mmHg 96%
    23:00 +1°C° 1.2 mm 3 mps 740 mmHg 96%

    24 February, Monday

    Time Temperature Precipitation Wind Pressure Humidity
    00:00 0°C° 1.2 mm 5 mps 741 mmHg 95%
    01:00 -2°C° 1.2 mm 7 mps 742 mmHg 95%
    02:00 -2°C° 0.4 mm 8 mps 743 mmHg 95%
    03:00 -3°C° 0.4 mm 9 mps 744 mmHg 94%
    04:00 -2°C° 0.4 mm 10 mps 745 mmHg 94%
    05:00 -1°C° 0 mm 9 mps 746 mmHg 90%
    06:00 -1°C° 0 mm 9 mps 747 mmHg 86%
    07:00 0°C° 0 mm 9 mps 749 mmHg 81%
    08:00 0°C° 0.1 mm 8 mps 749 mmHg 81%
    09:00 0°C° 0.1 mm 8 mps 750 mmHg 81%
    10:00 +1°C° 0.1 mm 8 mps 751 mmHg 81%
    11:00 +3°C° 0 mm 7 mps 752 mmHg 72%
    12:00 +4°C° 0 mm 7 mps 752 mmHg 64%
    13:00 +5°C° 0 mm 7 mps 753 mmHg 55%
    14:00 +5°C° 0 mm 6 mps 753 mmHg 58%
    15:00 +5°C° 0 mm 5 mps 753 mmHg 61%
    16:00 +5°C° 0 mm 5 mps 753 mmHg 64%
    17:00 +4°C° 0 mm 4 mps 754 mmHg 68%
    18:00 +3°C° 0 mm 4 mps 754 mmHg 73%
    19:00 +2°C° 0 mm 3 mps 754 mmHg 78%
    20:00 +2°C° 0 mm 3 mps 754 mmHg 80%
    21:00 +1°C° 0 mm 3 mps 754 mmHg 82%
    22:00 +1°C° 0 mm 3 mps 753 mmHg 84%
    23:00 +1°C° 0 mm 3 mps 753 mmHg 82%

    25 February, Tuesday

    Time Temperature Precipitation Wind Pressure Humidity
    00:00 0°C° 0 mm 4 mps 752 mmHg 81%
    01:00 0°C° 0 mm 5 mps 751 mmHg 79%
    02:00 +1°C° 0 mm 5 mps 750 mmHg 76%
    03:00 +1°C° 0 mm 6 mps 749 mmHg 74%
    04:00 +1°C° 0 mm 6 mps 748 mmHg 71%
    05:00 +2°C° 0.1 mm 7 mps 748 mmHg 71%
    06:00 +2°C° 0.1 mm 7 mps 747 mmHg 71%
    07:00 +3°C° 0.1 mm 7 mps 746 mmHg 70%
    08:00 +4°C° 0 mm 8 mps 746 mmHg 70%
    09:00 +5°C° 0 mm 8 mps 746 mmHg 70%
    10:00 +6°C° 0 mm 9 mps 745 mmHg 70%
    11:00 +7°C° 0 mm 8 mps 745 mmHg 70%
    12:00 +9°C° 0 mm 8 mps 745 mmHg 69%
    13:00 +9°C° 0 mm 7 mps 744 mmHg 69%
    14:00 +9°C° 0 mm 6 mps 744 mmHg 71%
    15:00 +9°C° 0 mm 5 mps 744 mmHg 73%
    16:00 +8°C° 0 mm 5 mps 743 mmHg 75%
    17:00 +8°C° 0.2 mm 5 mps 743 mmHg 79%
    18:00 +8°C° 0.2 mm 5 mps 743 mmHg 82%
    19:00 +7°C° 0.2 mm 5 mps 743 mmHg 86%
    20:00 +7°C° 0.2 mm 5 mps 743 mmHg 86%
    21:00 +7°C° 0.2 mm 6 mps 743 mmHg 86%
    22:00 +7°C° 0.2 mm 6 mps 743 mmHg 86%
    23:00 +6°C° 0.6 mm 5 mps 742 mmHg 87%

    26 February, Wednesday

    Time Temperature Precipitation Wind Pressure Humidity
    00:00 +6°C° 0.6 mm 5 mps 742 mmHg 88%
    01:00 +6°C° 0.6 mm 4 mps 742 mmHg 89%
    02:00 +5°C° 0.3 mm 3 mps 742 mmHg 86%
    03:00 +4°C° 0.3 mm 3 mps 741 mmHg 82%
    04:00 +5°C° 0.3 mm 2 mps 741 mmHg 78%
    05:00 +4°C° 0 mm 2 mps 741 mmHg 77%
    06:00 +4°C° 0 mm 2 mps 741 mmHg 77%
    07:00 +4°C° 0 mm 2 mps 741 mmHg 77%
    08:00 +3°C° 0 mm 3 mps 741 mmHg 74%
    09:00 +4°C° 0 mm 4 mps 741 mmHg 72%
    10:00 +4°C° 0 mm 4 mps 741 mmHg 69%
    11:00 +5°C° 0 mm 5 mps 741 mmHg 67%
    12:00 +5°C° 0 mm 5 mps 741 mmHg 64%
    13:00 +5°C° 0 mm 5 mps 741 mmHg 62%
    14:00 +5°C° 0 mm 5 mps 740 mmHg 62%
    15:00 +5°C° 0 mm 5 mps 740 mmHg 62%
    16:00 +5°C° 0 mm 5 mps 740 mmHg 62%
    17:00 +3°C° 0.1 mm 5 mps 740 mmHg 65%
    18:00 +2°C° 0.1 mm 5 mps 740 mmHg 67%
    19:00 +2°C° 0.1 mm 5 mps 740 mmHg 70%
    20:00 +1°C° 0 mm 5 mps 741 mmHg 71%
    21:00 +1°C° 0 mm 6 mps 741 mmHg 72%
    22:00 -1°C° 0 mm 6 mps 741 mmHg 73%
    23:00 -1°C° 0 mm 6 mps 741 mmHg 73%
    Show more